Regional Weather Roundup
Issued by NWS

Home | Current Version | Previous Version | Graphics & Text | Print | Product List | Glossary On
Versions: 1 2 3 4 5 6 7 8 9 10 11 12 13 14 15 16 17 18 19 20 21 22 23 24 25 26 27 28 29 30 31 32 33 34 35 36 37 38 39 40 41 42 43 44 45 46 47 48 49 50
000
ASUS45 KTFX 230110
RWRMT
MONTANA REGIONAL WEATHER ROUNDUP
NATIONAL WEATHER SERVICE GREAT FALLS MT
700 PM MDT FRI SEP 22 2017

NOTE: "FAIR" INDICATES FEW OR NO CLOUDS BELOW 12000 FEET WITH NO
SIGNIFICANT WEATHER AND/OR OBSTRUCTIONS TO VISIBILITY.

MTZ001>007-043-230200-
WEST OF THE DIVIDE

CITY           SKY/WX    TMP DP  RH WIND       PRES   REMARKS
MISSOULA       MOCLDY    44  34  67 E12       30.04R
BUTTE          CLOUDY    34  32  92 W7        30.00S WCI  28
MULLAN PASS    MOCLDY    32  30  92 CALM      30.00
ANACONDA         N/A     36  28  75 N5        30.02S
DEER LODGE       N/A     37  30  75 NW7       30.05R
EUREKA           N/A     52  30  43 CALM      30.02S
HAMILTON         N/A     43  32  65 N5        30.03R
LIBBY            N/A     52  34  50 CALM      30.00S
PLAINS           N/A     51  34  52 CALM      30.03S
$$

MTZ008-052>055-230200-
SOUTHWEST MONTANA

CITY           SKY/WX    TMP DP  RH WIND       PRES   REMARKS
BOZEMAN        CLOUDY    40  35  83 W6        30.01R
DILLON         CLOUDY    36  32  85 NE8       29.98R WCI  30
W YELLOWSTONE  CLOUDY    37  34  87 SW9       29.95F WCI  31
ENNIS          CLOUDY    37  34  87 N10       30.02S WCI  30
THREE FORKS      N/A     40  35  82 NW6       30.00S
TWIN BRIDGES     N/A     38  31  76 N6        29.97R
$$

MTZ009-010-012-014-046-048-049-054-230200-
EAST SLOPES AND CENTRAL MONTANA

CITY           SKY/WX    TMP DP  RH WIND       PRES   REMARKS
CUT BANK       CLOUDY    39  33  79 SE3       30.07S
GREAT FALLS    LGT RAIN  37  34  89 NE5       30.08S
MALMSTROM AFB  DRIZZLE   37  36  97 N3        30.09S
HELENA         CLOUDY    38  36  92 W8        30.05R
BOWMANS CRNR   FLURRIES  31  31  99 N6        30.05S WCI  26
CHOTEAU          N/A     32  32 100 CALM      30.10S FOG
FAIRFIELD      LGT SNOW  33  31  96 NW3       30.08S
POWER          LGT RAIN  36  34  93 NW3       30.07S
RAYNESFORD     CLOUDY    38  37  97 N6        30.07R
ULM            LGT RAIN  35  35 100 NW6       30.08S WCI  30
$$

MTZ011-013-016-021-045-047-050-051-230200-
NORTH CENTRAL MONTANA

CITY           SKY/WX    TMP DP  RH WIND       PRES   REMARKS
HAVRE          CLOUDY    47  33  58 CALM      30.07S
LEWISTOWN      CLOUDY    37  36  96 SE6       30.05S
N BAR RANCH    CLOUDY    34  34 100 CALM      30.07S FOG
CHINOOK          N/A     46  34  61 CALM      30.07S
DENTON           N/A     40  37  90 NE5       30.04R
GEYSER         CLOUDY    37  36  97 NE8       30.06R WCI  31
JUDITH GAP     CLOUDY    35  34  94 NW12      30.04R WCI  27
WINIFRED       CLOUDY    40  36  86 E5        30.06R
$$

MTZ017>020-022>027-061-062-230200-
NORTHEAST MONTANA

CITY           SKY/WX    TMP DP  RH WIND       PRES   REMARKS
GLASGOW        CLOUDY    47  39  74 NE5       30.06S
JORDAN           N/A     44  39  82 E5        30.06R
SIDNEY         CLOUDY    46  41  82 N10       30.03F
WOLF POINT     CLOUDY    47  39  74 N5        30.08R
MALTA          CLOUDY    46  37  71 CALM      30.07S
SCOBEY           N/A     41  34  76 CALM      30.04R
$$

MTZ028>42-056>058-230200-
SOUTHCENTRAL AND SOUTHEAST MONTANA

CITY           SKY/WX    TMP DP  RH WIND       PRES   REMARKS
BAKER          CLOUDY    45  36  70 N9        30.03R
BILLINGS       CLOUDY    40  39  97 NE10      30.04R FOG
LIVINGSTON     CLOUDY    37  33  85 E15       30.01R WCI  28
MILES CITY     CLOUDY    46  35  65 NE9       30.06R
BIG TIMBER     CLOUDY    34  34 100 NE7       30.06R FOG     WCI  28
EKALAKA          N/A     44  34  68 N8        29.99R
HARLOWTON      CLOUDY    35  35  98 MISG      30.04S
LAUREL           N/A     41  39  93 NE12      30.05R FOG
$$

REGIONAL REPORTS...DAKOTAS

CITY           SKY/WX    TMP DP  RH WIND       PRES   REMARKS
WILLISTON      CLOUDY    47  42  83 N10       30.05R
MINOT          CLOUDY    49  44  83 NW15      29.95S
BEACH          CLOUDY    43  37  81 N14       30.04S
CROSBY         CLOUDY    45  45 100 NW9       30.04R
TIOGA          CLOUDY    45  45 100 N7        30.03F
WATFORD CITY   CLOUDY    46  41  81 N8        30.02F
BISMARCK       CLOUDY    49  47  93 N16G24    29.91R
GRAND FORKS    MOCLDY    59  55  87 N16G25    29.66F
FARGO          PTCLDY    85  71  63 SE9       29.60F HX  90
BUFFALO SD       N/A     48  36  63 N17       29.92R
$$

REGIONAL REPORTS...WYOMING/IDAHO/WASHINGTON

CITY           SKY/WX    TMP DP  RH WIND       PRES   REMARKS
GILLETTE       CLOUDY    47  36  65 N13       29.97R
SHERIDAN       CLOUDY    45  41  86 CALM      30.01R
BUFFALO WY     CLOUDY    42  38  85 N3        30.01S FOG
CODY           LGT RAIN  38  36  92 N10       29.98F WCI  31
IDAHO FALLS    CLOUDY    45  35  68 S9        29.95S
SALMON         CLOUDY    49  33  54 CALM      29.95R
BOISE          PTCLDY    51  39  63 CALM      29.97F
SPOKANE        MOCLDY    56  36  47 E5        29.99R
$$

REGIONAL REPORTS...ALBERTA

CITY           SKY/WX    TMP DP  RH WIND       PRES   REMARKS
EDMONTON       CLOUDY    43  39  87 CALM      30.08S
CALGARY        MOCLDY    41  34  75 E7        30.06S
LETHBRIDGE     MOCLDY    45  32  61 W5G23     30.08S
MEDICINE HAT   CLOUDY    46  36  66 N8        30.07R
$$

REGIONAL REPORTS...SASKATCHEWAN

CITY           SKY/WX    TMP DP  RH WIND       PRES   REMARKS
SWIFT CURRENT  CLOUDY    45  34  65 N8        30.05S
REGINA         CLOUDY    45  41  87 NW8       30.07R
SASKATOON      CLOUDY    46  39  76 CALM      30.09R
$$



USA.gov is the U.S. government's official web portal to all federal, state and local government web resources and services.